Budapest Ferihegy, Hungary

2:49 AM CEST on September 24, 2017 (GMT +0200)
Ferihegy

Weather History for LHBP - September, 2013

Change the Weather History Date:

Wednesday, September 4, 2013

  Actual Average Record
Temperature  
Mean Temperature 60 °F -  
Max Temperature 75 °F 67 °F 87 °F (2011)
Min Temperature 44 °F 48 °F 42 °F (2003)
Degree Days  
Heating Degree Days 6    
Growing Degree Days 10 (Base 50)    
Moisture  
Dew Point 46 °F    
Average Humidity 64    
Maximum Humidity 100    
Minimum Humidity 29    
Precipitation  
Precipitation 0.00 in - - ()
Sea Level Pressure  
Sea Level Pressure 30.23 in    
Wind  
Wind Speed 4 mph ()    
Max Wind Speed 9 mph    
Max Gust Speed -    
Averages and records for this station are not official NWS values.
T = Trace of Precipitation, MM = Missing Value Source: Averaged Metar Reports

Daily Weather History Graph

Daily Weather History Graph

Search for Another Location

Airport or City:

Trip Planner

Search our weather history database for the weather conditions in past years. The results will help you decide how hot, cold, wet, or windy it might be!

Date:

Astronomy

Sep. 04, 2013 Rise Set
Actual Time 6:05 AM CEST 7:17 PM CEST
Civil Twilight 5:34 AM CEST 7:48 PM CEST
Nautical Twilight 4:55 AM CEST 8:26 PM CEST
Astronomical Twilight 4:15 AM CEST 9:06 PM CEST
Moon 4:59 AM CEST (9/4) 6:25 PM CEST (9/4)
Length of Visible Light 14h 14m
Length of Day
13h 11m
Waning Crescent, 1% of the Moon is Illuminated
Sep 4
Waning Crescent
Sep 5
New
Sep 12
First Quarter
Sep 19
Full
Sep 27
Last Quarter

Hourly Weather History & Observations

Time (CEST) Temp. Dew Point Humidity Pressure Visibility Wind Dir Wind Speed Gust Speed Precip Events Conditions
12:00 AM 57.2 °F 51.8 °F 82% 30.24 in - Variable 2.3 mph - N/A   Clear
12:30 AM 55.4 °F 51.8 °F 88% 30.24 in - NW 6.9 mph - N/A   Clear
1:00 AM 51.8 °F 48.2 °F 88% 30.24 in - Variable 2.3 mph - N/A   Clear
1:30 AM 51.8 °F 48.2 °F 88% 30.24 in - WNW 4.6 mph - N/A   Clear
2:00 AM 53.6 °F 50.0 °F 88% 30.24 in - Variable 3.5 mph - N/A   Clear
2:30 AM 51.8 °F 50.0 °F 94% 30.24 in - Variable 3.5 mph - N/A   Clear
3:00 AM 51.8 °F 48.2 °F 88% 30.24 in - Variable 3.5 mph - N/A   Clear
3:30 AM 50.0 °F 46.4 °F 87% 30.24 in - Variable 1.2 mph - N/A   Clear
4:00 AM 48.2 °F 46.4 °F 93% 30.27 in - Variable 3.5 mph - N/A   Clear
4:30 AM 48.2 °F 46.4 °F 93% 30.27 in - SW 4.6 mph - N/A   Clear
5:00 AM 46.4 °F 44.6 °F 93% 30.27 in - Variable 2.3 mph - N/A   Clear
5:30 AM 46.4 °F 46.4 °F 100% 30.27 in - Variable 1.2 mph - N/A   Clear
6:00 AM 44.6 °F 42.8 °F 93% 30.27 in - Variable 2.3 mph - N/A   Clear
6:30 AM 44.6 °F 44.6 °F 100% 30.27 in - Variable 2.3 mph - N/A   Clear
7:00 AM 48.2 °F 48.2 °F 100% 30.27 in - Variable 2.3 mph - N/A   Clear
7:30 AM 51.8 °F 50.0 °F 94% 30.27 in - Calm Calm - N/A   Clear
8:00 AM 55.4 °F 51.8 °F 88% 30.27 in - Variable 2.3 mph - N/A   Clear
8:30 AM 59.0 °F 51.8 °F 77% 30.27 in - Variable 1.2 mph - N/A   Clear
9:00 AM 60.8 °F 50.0 °F 68% 30.27 in - Variable 2.3 mph - N/A   Clear
9:30 AM 64.4 °F 51.8 °F 64% 30.27 in - WSW 4.6 mph - N/A   Clear
10:00 AM 66.2 °F 48.2 °F 52% 30.27 in - West 4.6 mph - N/A   Clear
10:30 AM 68.0 °F 44.6 °F 43% 30.27 in - Variable 3.5 mph - N/A   Clear
11:00 AM 68.0 °F 44.6 °F 43% 30.27 in - SSW 5.8 mph - N/A   Clear
11:30 AM 69.8 °F 44.6 °F 40% 30.27 in - Variable 3.5 mph - N/A   Clear
12:00 PM 69.8 °F 44.6 °F 40% 30.27 in - NNE 4.6 mph - N/A   Clear
12:30 PM 69.8 °F 44.6 °F 40% 30.27 in - South 6.9 mph - N/A   Clear
1:00 PM 71.6 °F 44.6 °F 38% 30.27 in - ENE 5.8 mph - N/A   Clear
1:30 PM 71.6 °F 39.2 °F 31% 30.24 in - NNW 8.1 mph - N/A   Clear
2:00 PM 73.4 °F 44.6 °F 36% 30.24 in - North 8.1 mph - N/A   Clear
2:30 PM 73.4 °F 39.2 °F 29% 30.24 in - WNW 6.9 mph - N/A   Clear
3:00 PM 73.4 °F 42.8 °F 33% 30.24 in - WNW 8.1 mph - N/A   Clear
3:30 PM 73.4 °F 41.0 °F 31% 30.21 in - NW 9.2 mph - N/A   Clear
4:00 PM 73.4 °F 42.8 °F 33% 30.21 in - NW 9.2 mph - N/A   Clear
4:30 PM 75.2 °F 42.8 °F 31% 30.21 in - NNW 6.9 mph - N/A   Clear
5:00 PM 73.4 °F 41.0 °F 31% 30.21 in - NNW 8.1 mph - N/A   Clear
5:30 PM 73.4 °F 42.8 °F 33% 30.21 in - North 9.2 mph - N/A   Clear
6:00 PM 73.4 °F 41.0 °F 31% 30.18 in - North 8.1 mph - N/A   Clear
6:30 PM 73.4 °F 42.8 °F 33% 30.18 in - NNE 4.6 mph - N/A   Clear
7:00 PM 71.6 °F 42.8 °F 35% 30.18 in - ENE 4.6 mph - N/A   Clear
7:30 PM 66.2 °F 44.6 °F 46% 30.18 in - Variable 3.5 mph - N/A   Clear
8:00 PM 64.4 °F 44.6 °F 49% 30.18 in - Variable 1.2 mph - N/A   Clear
8:30 PM 62.6 °F 46.4 °F 55% 30.18 in - Variable 1.2 mph - N/A   Clear
9:00 PM 57.2 °F 46.4 °F 67% 30.18 in - Variable 3.5 mph - N/A   Clear
9:30 PM 57.2 °F 48.2 °F 72% 30.21 in - Calm Calm - N/A   Clear
10:00 PM 53.6 °F 48.2 °F 82% 30.18 in - Variable 1.2 mph - N/A   Clear
10:30 PM 53.6 °F 48.2 °F 82% 30.18 in - Variable 2.3 mph - N/A   Clear
11:00 PM 55.4 °F 48.2 °F 77% 30.18 in - Variable 2.3 mph - N/A   Clear
11:30 PM 51.8 °F 46.4 °F 82% 30.18 in - Variable 1.2 mph - N/A   Clear